sat.trackr.live / text

‹ back to catalog

CUBEBUG-2 (LO-74)

NORAD 39440 · 2013-066AA

PAYLOAD ACTIVE UNKNOWN

§ Identity

Operator
Country
ARGN
Launch date
2013-11-21
Launch site
DLS
Launch vehicle
Mass (kg)
RCS (m²)
0.11

Purposes: comms, tech_demo

External: N2YO · Heavens-Above · Gunter

§ Orbital elements

Epoch: 2026-09-20T02:21:37.626624Z

Period
96.37 min
Inclination
97.8991°
Eccentricity
0.0058631
Mean motion
14.94295020 rev/d
Perigee alt
543.7 km
Apogee alt
625.4 km
Semi-major
6,962.7 km
B*
2.0952e-4
RAAN
212.5547°
Arg perigee
72.8867°
Mean anomaly
287.8762°
Rev number
69,116

§ Raw data

CUBEBUG-2 (LO-74)1 39440U 13066AA  26263.09835216  .00002265  00000+0  20952-3 0  99942 39440  97.8991 212.5547 0058631  72.8867 287.8762 14.94295020691161

JSON: /api/v1/satellites/39440 · /tle

For live sub-satellite position, see the globe view (requires WebGL).

§ Visibility from observer

Set your observer location to see the next 7 days of passes ≥ 10°. The values pass through the URL so the page stays shareable.

No JS? Fill the form by hand. The geolocation button needs JavaScript.

§ Radio — SatNOGS DB

ModeDescriptionDownlinkUplink
FSK Mode U - FSK9k6 - AX.25 TLM 437.445 MHz
AFSK UHF 1K2 AFSK Telemetry 437.445 MHz

2 transmitters · refreshed weekly from db.satnogs.org